EW5586 Weather Reports


Display with metric or nautical units.
time (UTC)temp
F
wind
direction
speed
MPH
gust
MPH
rain 1hr
in
rain 24hr
in
rain mn
in
humidity
%
barometer
mb
20260901024103 68 264 0.0 0.0 0.00 0.00 0.00 93 1016.3
20260901023103 68 265 0.0 0.0 0.00 0.00 0.00 93 1016.5
20260901022603 68 265 0.0 0.0 0.00 0.00 0.00 92 1016.7
20260901022104 68 228 0.0 0.0 0.00 0.00 0.00 92 1016.6
20260901021603 68 224 0.0 0.0 0.00 0.00 0.00 93 1016.6
20260901021103 68 224 0.0 0.0 0.00 0.00 0.00 93 1016.5
20260901020603 68 342 0.0 0.0 0.00 0.00 0.00 92 1016.3
20260901020104 68 344 0.0 0.0 0.00 0.00 0.00 92 1016.3
20260901015603 68 344 0.0 0.0 0.00 0.00 0.00 92 1016.5
20260901014601 69 324 0.0 0.0 0.00 0.00 0.00 92 1016.6
20260901014100 69 208 0.0 0.0 0.00 0.00 0.00 92 1016.5
20260901013559 69 208 0.0 0.0 0.00 0.00 0.00 92 1016.5
20260901013059 69 208 0.0 1.0 0.00 0.00 0.00 93 1016.4
20260901012556 69 202 0.0 1.0 0.00 0.00 0.00 93 1016.4
20260901012057 69 324 0.0 0.0 0.00 0.00 0.00 92 1016.6
20260901011555 69 324 0.0 0.0 0.00 0.00 0.00 92 1016.6
20260901010554 69 312 0.0 0.0 0.00 0.00 0.00 92 1016.4
20260901010055 69 307 0.0 0.0 0.00 0.00 0.00 92 1016.5
20260901005553 69 307 0.0 0.0 0.00 0.00 0.00 92 1016.6
20260901005053 69 307 0.0 0.0 0.00 0.00 0.00 92 1016.8
20260901004549 69 306 0.0 0.0 0.00 0.00 0.00 92 1016.8
20260901004049 69 307 0.0 0.0 0.00 0.00 0.00 92 1016.9
20260901003549 69 307 0.0 0.0 0.00 0.00 0.00 91 1016.7
20260901003051 69 307 0.0 0.0 0.00 0.00 0.00 91 1016.4
20260901002549 69 306 0.0 0.0 0.00 0.00 0.00 91 1016.4
20260901002049 69 307 0.0 0.0 0.00 0.00 0.00 91 1016.4
20260901001549 69 307 0.0 0.0 0.00 0.00 0.00 91 1016.4
20260901000549 69 307 0.0 0.0 0.00 0.00 0.00 91 1016.5
20260901000045 69 306 0.0 0.0 0.00 0.00 0.00 91 1016.5
20260831235045 69 307 0.0 0.0 0.00 0.00 0.00 90 1016.5
20260831234545 69 307 0.0 0.0 0.00 0.00 0.00 90 1016.5
20260831234046 69 307 0.0 0.0 0.00 0.00 0.00 90 1016.5
20260831233545 69 307 0.0 0.0 0.00 0.00 0.00 89 1016.5
20260831233045 70 306 0.0 0.0 0.00 0.00 0.00 89 1016.5
20260831232545 70 303 0.0 0.0 0.00 0.00 0.00 89 1016.5
20260831232048 70 303 0.0 0.0 0.00 0.00 0.00 89 1016.6
20260831231541 70 303 0.0 0.0 0.00 0.00 0.00 89 1016.7
20260831231042 70 303 0.0 0.0 0.00 0.00 0.00 89 1016.8
20260831230537 70 303 0.0 0.0 0.00 0.00 0.00 89 1016.9
20260831230040 70 303 0.0 0.0 0.00 0.00 0.00 88 1016.9
20260831225537 70 303 0.0 0.0 0.00 0.00 0.00 89 1016.9
20260831224535 71 302 0.0 0.0 0.00 0.00 0.00 88 1016.9
20260831224035 71 302 0.0 0.0 0.00 0.00 0.00 88 1016.9
20260831223535 71 302 0.0 0.0 0.00 0.00 0.00 88 1016.8
20260831223032 71 302 0.0 0.0 0.00 0.00 0.00 88 1016.8
20260831222030 71 302 0.0 0.0 0.00 0.00 0.00 87 1016.8
20260831221529 71 302 0.0 0.0 0.00 0.00 0.00 87 1016.8
20260831221030 71 302 0.0 0.0 0.00 0.00 0.00 87 1016.8
20260831220528 71 302 0.0 0.0 0.00 0.00 0.00 87 1017.0
20260831220029 71 302 0.0 0.0 0.00 0.00 0.00 87 1017.0
20260831215520 71 302 0.0 0.0 0.00 0.00 0.00 87 1017.0
20260831215014 71 302 0.0 0.0 0.00 0.00 0.00 87 1017.0
20260831214508 71 302 0.0 0.0 0.00 0.00 0.00 87 1017.0
20260831214002 71 302 0.0 0.0 0.00 0.00 0.00 87 1017.0
20260831213456 71 302 0.0 0.0 0.00 0.00 0.00 87 1017.0
20260831212950 71 302 0.0 0.0 0.00 0.00 0.00 86 1017.0
20260831212444 71 302 0.0 0.0 0.00 0.00 0.00 86 1017.0
20260831211938 71 302 0.0 0.0 0.00 0.00 0.00 86 1017.1
20260831211432 71 302 0.0 0.0 0.00 0.00 0.00 86 1017.1
20260831210926 71 302 0.0 0.0 0.00 0.00 0.00 86 1017.2
20260831210420 71 302 0.0 0.0 0.00 0.00 0.00 86 1017.3
20260831205915 71 302 0.0 0.0 0.00 0.00 0.00 86 1017.3
20260831205408 71 302 0.0 0.0 0.00 0.00 0.00 86 1017.4
20260831204903 71 302 0.0 0.0 0.00 0.00 0.00 87 1017.4
20260831204356 71 302 0.0 0.0 0.00 0.00 0.00 87 1017.4
20260831203856 71 302 0.0 0.0 0.00 0.00 0.00 87 1017.5
20260831203355 71 302 0.0 0.0 0.00 0.00 0.00 88 1017.4
20260831202853 71 302 0.0 0.0 0.00 0.00 0.00 88 1017.5
20260831202351 71 302 0.0 0.0 0.00 0.00 0.00 88 1017.4
20260831201348 71 302 0.0 0.0 0.00 0.00 0.00 89 1017.5
20260831200850 71 302 0.0 0.0 0.00 0.00 0.00 89 1017.5
20260831200346 71 302 0.0 0.0 0.00 0.00 0.00 89 1017.6
20260831195847 71 302 0.0 0.0 0.00 0.00 0.00 90 1017.7
20260831194842 71 246 0.0 0.0 0.00 0.00 0.00 90 1017.7
20260831194343 71 246 0.0 0.0 0.00 0.00 0.00 90 1017.8
20260831193841 71 246 0.0 0.0 0.00 0.00 0.00 90 1017.8
20260831193340 71 246 0.0 0.0 0.00 0.00 0.00 90 1017.9
20260831192340 71 244 0.0 1.0 0.00 0.00 0.00 89 1017.9
20260831191841 71 242 0.0 1.0 0.00 0.00 0.00 89 1018.0
20260831191339 71 201 0.0 4.0 0.00 0.00 0.00 89 1017.9
20260831190837 71 183 1.0 5.0 0.00 0.00 0.00 88 1017.9
20260831190336 71 188 1.0 5.0 0.00 0.00 0.00 87 1018.0
20260831185831 71 170 0.0 4.0 0.00 0.00 0.00 87 1018.0
20260831185325 71 196 1.0 2.0 0.00 0.00 0.00 87 1018.0
20260831184313 71 164 0.0 0.0 0.00 0.00 0.00 87 1018.2
20260831183806 71 167 0.0 0.0 0.00 0.00 0.00 87 1018.3
20260831183300 71 167 0.0 0.0 0.00 0.00 0.00 87 1018.3
20260831182757 71 166 0.0 0.0 0.00 0.00 0.00 87 1018.3
20260831182248 71 177 0.0 0.0 0.00 0.00 0.00 87 1018.4
20260831181742 71 180 0.0 0.0 0.00 0.00 0.00 88 1018.5
20260831181236 71 183 0.0 0.0 0.00 0.00 0.00 88 1018.5
20260831180730 71 221 0.0 5.0 0.00 0.00 0.00 88 1018.5
20260831175718 71 163 2.0 6.0 0.00 0.00 0.00 88 1018.5
20260831175212 71 211 2.0 6.0 0.00 0.00 0.00 88 1018.5
20260831174706 71 208 4.0 7.0 0.00 0.00 0.00 88 1018.5
20260831174159 71 151 5.0 11.0 0.00 0.00 0.00 88 1018.5
20260831173654 71 163 6.0 11.0 0.00 0.00 0.00 86 1018.5
20260831173148 72 222 4.0 11.0 0.00 0.00 0.00 85 1018.6
20260831172643 73 217 1.0 5.0 0.00 0.00 0.00 82 1018.6
20260831172137 73 186 1.0 3.0 0.00 0.00 0.00 81 1018.5
20260831171630 73 0 0.0 0.0 0.00 0.00 0.00 81 1018.6
20260831170618 74 182 1.0 4.0 0.00 0.00 0.00 80 1018.7
20260831170113 74 197 0.0 3.0 0.00 0.00 0.00 80 1018.7
20260831165605 74 199 0.0 1.0 0.00 0.00 0.00 79 1018.9
20260831164554 74 209 2.0 4.0 0.00 0.00 0.00 79 1018.9
20260831164048 74 213 1.0 4.0 0.00 0.00 0.00 79 1018.9
20260831163545 74 191 1.0 5.0 0.00 0.00 0.00 79 1018.8
20260831163037 74 214 2.0 5.0 0.00 0.00 0.00 80 1018.9
20260831162530 74 194 1.0 5.0 0.00 0.00 0.00 81 1019.0
20260831162024 74 198 1.0 4.0 0.00 0.00 0.00 81 1019.0
20260831161518 74 211 2.0 4.0 0.00 0.00 0.00 81 1019.0
20260831160507 74 210 4.0 5.0 0.00 0.00 0.00 81 1019.0
20260831160002 73 217 3.0 5.0 0.00 0.00 0.00 82 1019.1
20260831155500 73 204 2.0 5.0 0.00 0.00 0.00 82 1019.1
20260831154000 73 213 3.0 5.0 0.00 0.00 0.00 84 1019.2
20260831153501 72 192 2.0 5.0 0.00 0.00 0.00 85 1019.2
20260831153000 72 196 1.0 4.0 0.00 0.00 0.00 85 1019.3
20260831152500 72 194 1.0 4.0 0.00 0.00 0.00 85 1019.3
20260831151958 72 176 1.0 4.0 0.00 0.00 0.00 85 1019.3
20260831151457 72 177 1.0 4.0 0.00 0.00 0.00 86 1019.4
20260831150956 71 182 0.0 3.0 0.00 0.00 0.00 86 1019.3
20260831150456 71 238 0.0 0.0 0.00 0.00 0.00 87 1019.3
20260831145956 71 238 0.0 0.0 0.00 0.00 0.00 88 1019.2
20260831145454 71 238 0.0 0.0 0.00 0.00 0.00 89 1019.3
20260831144953 70 238 0.0 1.0 0.00 0.00 0.00 90 1019.3
20260831144452 70 238 0.0 1.0 0.00 0.00 0.00 93 1019.3
20260831143952 69 238 0.0 1.0 0.00 0.00 0.00 93 1019.3
20260831143453 69 238 0.0 1.0 0.00 0.00 0.00 93 1019.4
20260831142946 69 238 0.0 0.0 0.00 0.00 0.00 94 1019.3
20260831142446 68 238 0.0 0.0 0.00 0.00 0.00 94 1019.4
20260831141946 68 182 0.0 2.0 0.00 0.00 0.00 95 1019.4
20260831141446 68 182 0.0 2.0 0.00 0.00 0.00 96 1019.4
20260831140946 68 182 0.0 0.0 0.00 0.00 0.00 96 1019.4
20260831140448 68 182 0.0 0.0 0.00 0.00 0.00 96 1019.4
20260831135947 67 182 0.0 0.0 0.00 0.00 0.00 97 1019.4
20260831135444 67 182 0.0 0.0 0.00 0.00 0.00 97 1019.4
20260831134943 67 182 0.0 0.0 0.00 0.00 0.00 97 1019.4
20260831134442 66 182 0.0 0.0 0.00 0.00 0.00 97 1019.2
20260831133442 66 182 1.0 4.0 0.00 0.00 0.00 97 1019.3
20260831132942 66 183 1.0 5.0 0.00 0.00 0.00 97 1019.3
20260831131938 66 167 1.0 6.0 0.00 0.00 0.00 97 1019.3
20260831131438 65 165 3.0 6.0 0.00 0.00 0.00 97 1019.4
20260831130938 65 183 3.0 7.0 0.00 0.00 0.00 97 1019.4
20260831130438 65 181 4.0 7.0 0.00 0.00 0.00 97 1019.5
20260831125938 65 0 4.0 9.0 0.00 0.00 0.00 97 1019.5
20260831124938 65 151 4.0 7.0 0.00 0.00 0.00 98 1019.6
20260831124438 65 161 2.0 7.0 0.00 0.00 0.00 98 1019.5
20260831123933 65 181 1.0 5.0 0.00 0.00 0.00 98 1019.5
20260831121934 65 175 3.0 7.0 0.00 0.00 0.00 98 1019.6
20260831120935 65 175 1.0 6.0 0.00 0.00 0.00 98 1019.7
20260831120434 65 175 0.0 4.0 0.00 0.00 0.00 98 1019.7
20260831115934 64 175 0.0 2.0 0.00 0.00 0.00 97 1019.6
20260831115430 64 175 0.0 2.0 0.00 0.00 0.00 97 1019.6
20260831114430 64 175 0.0 2.0 0.00 0.00 0.00 97 1019.7
20260831113929 64 175 0.0 3.0 0.00 0.00 0.00 97 1019.7
20260831113430 64 175 0.0 3.0 0.00 0.00 0.00 97 1019.7
20260831112930 64 175 0.0 2.0 0.00 0.00 0.00 97 1019.6
20260831112430 64 175 0.0 0.0 0.00 0.00 0.00 98 1019.5
20260831111930 0 0.0 0.0 0.00 0.00 0.00 1019.4
20260831111424 0 0.0 0.0 0.00 0.00 0.00 1019.3
20260831110423 0 0.0 0.0 0.00 0.00 0.00 1019.2
20260831105911 0 0.0 0.0 0.00 0.00 0.00 1019.2
20260831105320 0 0.0 0.0 0.00 0.00 0.00 1019.3
20260831104726 0 0.0 0.0 0.00 0.00 0.00 1019.2
20260831104219 0 0.0 0.0 0.00 0.00 0.00 1019.1
20260831103624 0 0.0 0.0 0.00 0.00 0.00 1019.2
20260831103028 0 0.0 0.0 0.00 0.00 0.00 1019.2
20260831102015 0 0.0 0.0 0.00 0.00 0.00 1019.2
20260831101421 0 0.0 0.0 0.00 0.00 0.00 1019.1
20260831100908 0 0.0 0.0 0.00 0.00 0.00 1019.1
20260831100323 0 0.0 0.0 0.00 0.00 0.00 1019.1
20260831095726 0 0.0 0.0 0.00 0.00 0.00 1019.1
20260831095220 0 0.0 0.0 0.00 0.00 0.00 1019.0
20260831094718 0 0.0 0.0 0.00 0.00 0.00 1019.0
20260831094123 0 0.0 0.0 0.00 0.00 0.00 1018.9
20260831093528 0 0.0 0.0 0.00 0.00 0.00 1018.8
20260831093027 0 0.0 0.0 0.00 0.00 0.00 1018.6
20260831092523 0 0.0 0.0 0.00 0.00 0.00 1018.6
20260831092022 0 0.0 0.0 0.00 0.00 0.00 1018.6
20260831091520 0 0.0 0.0 0.00 0.00 0.00 1018.5
20260831090431 0 0.0 0.0 0.00 0.00 0.00 1018.6
20260831085329 0 0.0 0.0 0.00 0.00 0.00 1018.7
20260831084730 0 0.0 0.0 0.00 0.00 0.00 1018.7
20260831084225 0 0.0 0.0 0.00 0.00 0.00 1018.6
20260831083715 0 0.0 0.0 0.00 0.00 0.00 1018.7
20260831083126 0 0.0 0.0 0.00 0.00 0.00 1018.8
20260831082624 0 0.0 0.0 0.00 0.00 0.00 1018.9
20260831082118 0 0.0 0.0 0.00 0.00 0.00 1018.9
20260831081522 0 0.0 0.0 0.00 0.00 0.00 1018.8
20260831081015 0 0.0 0.0 0.00 0.00 0.00 1018.8
20260831075920 58 269 0.0 0.0 0.00 0.00 0.00 96 1018.9
20260831075347 58 269 0.0 0.0 0.00 0.00 0.00 96 1018.7
20260831074845 58 269 0.0 0.0 0.00 0.00 0.00 96 1018.6
20260831074331 58 269 0.0 0.0 0.00 0.00 0.00 96 1018.6
20260831073319 58 269 0.0 0.0 0.00 0.00 0.00 96 1018.7
20260831072814 59 269 0.0 0.0 0.00 0.00 0.00 96 1018.7
20260831072307 59 269 0.0 0.0 0.00 0.00 0.00 96 1018.7
20260831071801 59 269 0.0 2.0 0.00 0.00 0.00 96 1018.8
20260831071255 59 269 0.0 2.0 0.00 0.00 0.00 95 1018.7
20260831065739 60 269 0.0 0.0 0.00 0.00 0.00 96 1018.7
20260831065232 60 269 0.0 0.0 0.00 0.00 0.00 95 1018.7
20260831064725 60 269 0.0 0.0 0.00 0.00 0.00 95 1018.7
20260831063207 62 227 0.0 0.0 0.00 0.00 0.00 95 1018.8
20260831062154 62 227 0.0 0.0 0.00 0.00 0.00 95 1018.9
20260831061649 62 227 0.0 0.0 0.00 0.00 0.00 95 1018.9
20260831061143 63 227 0.0 0.0 0.00 0.00 0.00 95 1019.0
20260831060637 63 227 0.0 0.0 0.00 0.00 0.00 96 1019.0
20260831060132 63 227 0.0 0.0 0.00 0.00 0.00 96 1019.0
20260831055625 63 227 0.0 0.0 0.00 0.00 0.00 96 1019.0
20260831054613 64 227 0.0 0.0 0.00 0.00 0.00 96 1019.0
20260831054107 64 227 0.0 0.0 0.00 0.00 0.00 96 1019.0
20260831053601 64 227 0.0 0.0 0.00 0.00 0.00 96 1019.0
20260831052550 64 227 0.0 0.0 0.00 0.00 0.00 95 1019.0
20260831052043 64 227 0.0 0.0 0.00 0.00 0.00 95 1019.0
20260831051536 64 227 0.0 0.0 0.00 0.00 0.00 96 1019.0
20260831050525 64 227 0.0 3.0 0.00 0.00 0.00 96 1019.0
20260831050020 64 227 0.0 3.0 0.00 0.00 0.00 96 1019.0
20260831045513 64 239 0.0 3.0 0.00 0.00 0.00 96 1019.0
20260831045008 64 225 1.0 4.0 0.00 0.00 0.00 96 1018.9
20260831044501 65 221 0.0 4.0 0.00 0.00 0.00 96 1019.0
20260831043955 65 234 0.0 3.0 0.00 0.00 0.00 96 1019.1
20260831043449 65 213 1.0 4.0 0.00 0.00 0.00 96 1019.1
20260831042943 65 215 1.0 4.0 0.00 0.00 0.00 96 1019.2
20260831042437 65 205 1.0 4.0 0.00 0.00 0.00 96 1019.1
20260831041931 65 204 1.0 5.0 0.00 0.00 0.00 96 1019.1
20260831040919 65 203 0.0 0.0 0.00 0.00 0.00 95 1019.1
20260831035907 65 227 1.0 4.0 0.00 0.00 0.00 95 1019.0
20260831035401 65 216 1.0 4.0 0.00 0.00 0.00 95 1019.1
20260831034855 65 218 0.0 4.0 0.00 0.00 0.00 95 1019.0
20260831034350 65 224 0.0 0.0 0.00 0.00 0.00 95 1018.9
20260831033844 65 202 0.0 1.0 0.00 0.00 0.00 95 1018.9
20260831033341 65 203 0.0 1.0 0.00 0.00 0.00 95 1018.8
20260831032841 65 191 0.0 1.0 0.00 0.00 0.00 95 1018.8
20260831032339 65 191 0.0 1.0 0.00 0.00 0.00 95 1018.8
20260831030839 65 161 0.0 0.0 0.00 0.00 0.00 95 1018.6
20260831030340 65 217 0.0 0.0 0.00 0.00 0.00 95 1018.6
20260831025840 65 217 0.0 0.0 0.00 0.00 0.00 95 1018.6
20260831025339 65 221 0.0 0.0 0.00 0.00 0.00 95 1018.6
20260831024839 65 201 0.0 0.0 0.00 0.00 0.00 95 1018.5
20260831024339 65 212 0.0 0.0 0.00 0.00 0.00 95 1018.6